Location: Diebersbach
(48.5163°N, 8.0558°E)
Time: 21:03:02
(UTC+00:00)

USA 229 - Pass Details

Date: 29 October 2021
Orbit: 946 x 1266 km, 63.4° (Epoch: 25 November)

Event Time Altitude Azimuth Distance (km) Brightness Sun altitude
Rises 21:07:22 0° 296° (WNW) 3,791 7.3 -46.8°
Reaches altitude 10° 21:10:31 10° 310° (NW) 2,890 6.5 -47.2°
Enters shadow 21:13:17 19° 332° (NNW) 2,317 5.8 -47.5°
